ECMWFFLT1_250_spd_021.txt.gz
Wind_Speed
34 33 33 32 32 32 32 33 32 32 32 32 32 32 32 32 32 32 32 33 34 35 36 39 44 48 50 47 43 45 48 44 41 43 45 47 48 47 47 45 45 45 45 44 43 42 40 39 39 39 39 39 37 37 36 36 36 36 36 36 35 35 34
34 34 34 33 33 32 33 33 33 33 33 33 33 33 33 33 33 33 33 33 34 35 36 37 41 46 51 52 47 47 50 48 44 43 45 47 49 50 49 48 47 46 46 46 46 45 44 43 43 44 43 43 42 40 38 39 40 40 40 40 40 39 38
34 34 34 34 34 33 33 33 34 34 34 34 34 34 34 34 34 34 34 35 35 35 36 36 39 43 49 54 52 50 52 52 48 46 46 48 49 51 52 52 50 50 49 48 48 47 46 46 46 46 46 47 46 44 44 44 43 41 41 42 42 42 41
36 36 35 35 35 35 34 34 35 35 35 35 35 35 35 35 35 35 35 36 36 36 37 37 38 41 46 52 54 52 53 55 53 50 48 48 50 52 54 55 54 53 52 51 51 50 49 49 49 48 47 48 47 46 47 47 46 44 43 43 44 44 43
37 37 36 36 36 36 36 36 36 36 37 37 37 36 36 36 36 36 37 37 37 37 37 38 38 39 43 48 52 53 54 56 57 56 53 51 51 52 53 56 57 56 54 52 52 53 52 52 52 52 50 49 49 49 49 49 49 49 48 47 46 45 45
39 38 37 37 37 37 38 38 38 38 38 38 38 38 38 37 37 37 38 38 39 39 39 39 39 39 41 45 49 53 55 57 59 60 58 56 55 55 55 55 57 59 58 54 52 53 54 55 55 55 55 54 54 54 53 53 53 53 53 52 50 49 47
40 40 40 39 39 39 39 39 39 40 40 40 40 40 39 39 39 39 39 39 40 40 40 40 40 40 41 43 47 51 54 58 60 60 61 60 59 59 59 59 58 60 61 60 57 55 53 54 55 56 57 57 57 57 57 57 57 57 57 56 54 53 51
42 42 42 42 42 41 41 41 41 41 42 42 41 41 41 41 41 41 41 41 41 41 42 42 42 42 42 43 45 48 52 57 60 61 62 62 61 61 62 62 62 62 62 63 62 61 58 55 55 55 57 58 58 59 59 59 59 59 58 58 57 56 54
44 44 44 44 44 44 43 43 42 43 43 44 44 43 43 42 43 42 42 42 42 43 43 43 43 43 44 44 45 47 50 54 58 61 63 63 62 63 63 64 65 64 64 65 65 66 64 62 59 58 57 57 58 60 60 61 61 61 61 61 60 59 58
46 46 46 46 46 46 46 46 45 44 44 45 45 45 45 44 44 44 44 44 44 44 44 45 45 45 46 46 47 47 49 51 55 59 62 64 64 64 64 65 66 66 66 66 67 68 68 68 66 65 63 62 61 62 63 64 66 65 65 64 64 63 62
49 49 49 49 48 48 48 48 48 47 46 46 46 47 46 46 46 46 46 46 46 46 46 47 47 48 48 49 49 49 50 51 53 56 59 62 64 65 66 66 68 69 68 67 67 68 70 71 71 71 70 69 68 67 67 68 70 70 68 68 67 66 64
51 51 51 51 52 51 51 50 50 50 49 49 48 48 48 48 48 49 49 49 49 49 49 49 49 50 50 51 51 51 52 52 53 54 56 59 61 64 66 67 68 70 71 70 69 68 69 71 72 72 73 73 73 73 73 72 72 73 71 70 69 67 66
53 53 53 54 54 54 53 53 52 52 52 52 51 51 51 50 50 51 51 52 52 52 52 52 52 52 53 53 54 54 54 55 55 56 56 58 59 61 63 65 67 69 71 72 72 71 70 70 71 72 73 73 73 73 73 72 72 72 72 71 71 69 68
55 55 55 56 56 56 56 55 55 54 54 54 54 54 54 54 54 54 53 54 54 55 55 55 55 56 56 57 57 57 57 58 58 59 58 59 59 60 61 62 64 66 69 70 72 72 72 72 72 72 73 74 74 74 73 72 72 72 73 72 72 71 70
59 59 58 58 58 58 58 57 57 57 57 57 57 57 57 58 58 57 57 57 57 57 57 58 59 59 60 60 61 61 61 61 61 62 62 61 61 61 62 62 63 64 66 68 70 71 72 73 73 73 73 73 74 75 75 74 73 73 74 75 75 74 73
63 63 63 63 62 60 59 59 59 59 59 59 59 60 60 60 61 61 61 60 60 60 61 61 62 63 63 64 64 64 64 64 64 64 64 64 64 64 64 65 65 65 66 67 68 69 70 71 72 73 73 73 73 73 73 74 74 73 74 75 76 76 76
66 66 67 67 66 64 63 62 61 61 61 61 61 62 62 63 64 64 64 64 64 65 65 65 65 66 66 67 67 67 67 66 66 66 66 66 66 67 67 67 67 68 68 68 68 69 69 70 71 72 72 73 73 72 72 72 72 73 73 75 76 76 75
66 67 68 69 69 68 67 65 65 64 63 63 63 64 64 65 66 67 67 68 68 69 69 69 69 69 69 70 70 70 69 69 69 68 68 68 68 68 68 69 69 69 70 70 70 70 71 71 72 72 73 73 73 73 73 73 73 73 74 75 77 77 76
65 66 68 69 71 71 69 68 68 67 66 65 65 66 67 68 68 69 70 70 71 72 73 73 73 73 73 73 73 72 72 72 72 72 71 71 71 70 70 70 70 70 71 71 72 72 73 73 73 74 74 75 74 74 74 74 74 74 74 75 77 78 77
65 65 66 68 70 71 70 70 70 70 69 67 68 69 70 71 71 72 72 73 74 75 76 77 77 76 75 75 75 75 75 75 75 75 75 74 74 73 73 73 73 72 72 73 73 74 74 74 75 76 76 76 76 76 76 76 76 75 76 76 78 79 79
65 65 65 67 68 69 70 70 70 70 68 68 70 71 71 72 74 75 76 76 77 78 79 80 79 79 78 78 79 79 79 78 78 78 78 77 77 77 76 76 76 75 75 75 75 75 75 76 76 77 77 77 77 77 77 78 78 78 78 78 79 80 80
66 65 65 66 66 67 68 69 69 69 67 67 69 70 72 75 76 77 79 81 81 83 83 83 81 80 80 81 82 82 81 81 81 81 81 81 80 80 80 80 79 79 78 78 78 78 78 78 78 78 79 79 78 78 78 79 79 79 79 79 80 81 82
68 67 66 66 66 67 67 67 68 68 68 68 69 69 73 77 77 78 82 85 85 86 86 85 83 82 82 83 84 84 84 84 84 84 83 84 83 83 83 83 83 83 82 82 82 81 81 81 81 81 81 81 80 80 80 80 80 80 80 80 81 82 83
69 69 69 68 68 68 68 67 67 68 68 70 71 71 74 76 76 78 81 83 85 87 88 88 86 84 84 85 85 86 86 86 86 86 86 86 86 86 86 86 86 86 86 86 85 85 85 85 84 84 84 84 84 83 83 83 83 83 83 83 83 83 84
71 71 71 70 70 69 69 68 69 68 69 71 73 74 76 77 78 79 80 81 83 85 87 89 89 89 88 88 88 88 87 87 88 88 88 88 88 89 88 88 89 89 89 89 88 88 88 87 87 87 87 87 86 86 86 86 87 87 86 86 86 86 87
72 72 72 72 72 71 71 70 70 70 70 71 73 75 78 80 81 82 83 84 84 84 85 86 88 90 91 91 91 90 90 90 90 90 90 89 90 90 90 90 91 91 91 90 90 90 90 89 90 90 89 89 89 89 90 90 90 90 90 90 89 89 90
74 73 73 73 73 72 72 72 72 72 72 72 73 75 78 81 83 85 86 88 88 87 87 87 87 88 89 91 92 93 93 93 93 92 92 92 92 92 92 92 92 92 92 92 92 91 91 91 91 91 91 91 91 92 92 93 93 93 93 93 92 92 93
74 73 73 73 73 73 73 74 74 74 74 73 74 76 78 80 82 85 88 90 91 91 90 90 90 90 90 90 91 93 94 95 95 96 96 96 95 95 95 94 94 94 94 93 93 93 92 92 92 92 93 93 93 93 93 94 94 94 94 94 94 94 95
74 74 74 73 73 73 74 74 75 75 75 75 74 76 78 79 81 83 86 88 90 92 93 93 94 94 93 92 92 92 93 94 95 96 97 97 98 98 99 98 97 97 96 96 96 95 94 94 93 93 93 93 94 94 94 95 96 96 96 95 95 96 97
75 74 74 74 74 74 74 75 75 75 76 76 76 76 77 78 80 81 83 85 87 89 92 94 95 95 94 94 94 94 94 94 94 94 94 94 95 96 98 99 99 99 99 99 99 99 98 97 97 96 96 95 95 96 96 97 98 98 97 97 98 98 99
75 75 75 74 74 75 75 75 75 76 76 77 77 77 78 78 78 78 80 82 84 86 89 91 93 94 95 96 96 96 97 97 97 96 95 94 94 94 94 95 96 96 97 98 99 100 100 100 99 99 99 99 99 99 100 101 101 101 101 102 102 103 103
75 74 74 74 75 75 75 75 75 76 76 77 77 78 78 77 77 76 77 79 81 83 86 87 89 91 93 95 96 97 98 99 99 99 99 98 97 95 94 94 94 94 94 94 95 96 96 97 97 97 97 97 98 99 100 101 102 102 104 106 107 108 108
74 74 73 74 75 75 76 76 75 75 76 76 77 77 77 76 75 76 77 78 79 80 82 84 85 87 89 91 94 95 97 98 99 99 99 99 99 98 96 95 93 93 92 91 91 91 91 92 92 92 92 92 93 95 96 97 98 100 102 104 106 109 112
72 73 73 73 74 75 75 75 75 74 74 74 75 76 75 74 74 74 75 76 77 78 78 79 80 82 85 87 90 92 94 95 96 97 98 98 99 99 97 95 93 91 88 86 84 83 83 84 84 85 86 87 88 90 92 94 95 97 99 102 106 110 112
70 70 71 71 72 73 73 73 72 71 70 71 71 73 73 72 72 72 73 74 76 76 75 75 75 77 80 83 86 88 89 90 92 93 94 96 97 97 96 94 91 88 85 82 79 77 76 76 76 76 77 79 81 83 86 88 91 95 99 103 105 107 107
66 67 67 67 68 69 69 68 67 65 65 66 67 69 70 70 70 71 72 73 74 74 74 73 72 74 76 79 80 82 84 85 87 88 89 90 91 92 92 91 88 86 82 79 75 72 70 68 68 68 70 72 75 77 81 85 90 94 98 99 99 99 99
63 63 63 63 63 64 63 62 61 60 61 63 64 65 66 66 67 69 70 72 73 74 73 73 72 73 74 75 75 76 78 80 81 82 83 83 84 85 86 85 84 82 80 76 72 68 65 62 62 63 65 69 72 76 81 85 89 91 91 90 90 90 90

ECMWFFLT1_250_spd_024.txt.gz
Wind_Speed
27 27 27 27 28 28 28 28 29 30 31 32 32 33 33 33 34 35 37 38 39 40 40 41 42 45 46 47 48 49 48 48 46 44 43 42 43 44 43 43 44 45 45 44 43 42 42 42 42 39 38 41 42 40 38 38 37 36 36 36 37 39 38
30 30 29 29 30 30 30 30 30 31 32 33 33 34 34 34 34 35 37 38 39 39 40 40 41 43 45 47 49 50 50 50 49 46 44 44 45 45 46 46 47 47 47 47 47 47 47 47 45 42 40 41 42 41 40 41 41 40 39 39 40 40 40
33 32 32 31 32 32 32 31 31 32 33 33 34 34 35 35 35 35 37 38 38 39 39 40 40 40 43 46 49 51 51 52 52 50 47 46 46 47 48 48 49 49 49 49 50 50 50 49 48 47 46 45 46 45 44 44 45 44 42 43 43 43 42
35 35 34 34 33 33 33 33 33 33 33 34 35 35 35 35 36 36 37 37 38 38 39 39 40 40 40 43 47 50 52 53 55 53 50 49 49 49 50 51 51 51 51 51 52 53 52 51 50 50 49 50 50 49 47 46 46 45 44 44 45 46 46
38 38 37 37 36 36 35 35 35 34 34 35 35 35 36 36 36 37 37 38 38 38 39 39 40 40 40 41 44 48 51 53 56 56 52 52 52 51 51 52 53 53 53 53 53 53 54 54 53 52 50 50 51 51 51 50 48 46 46 46 46 46 48
40 40 40 40 40 39 38 38 37 36 36 36 36 36 36 37 37 38 38 38 39 39 39 39 40 41 41 42 43 45 49 52 55 57 55 54 55 55 53 53 54 55 55 55 55 55 55 55 55 55 54 52 52 52 53 53 52 50 48 48 48 47 48
42 42 43 43 42 42 41 41 40 39 38 38 37 37 38 38 39 39 39 39 40 40 40 40 41 41 42 42 43 44 47 50 53 56 57 57 57 57 57 55 54 55 56 57 57 57 57 56 56 56 56 56 55 54 54 54 54 52 51 51 51 50 49
44 44 44 44 44 44 43 43 42 41 40 39 39 39 39 39 40 41 41 41 41 41 41 41 42 42 43 43 44 44 46 48 51 54 57 58 59 59 60 59 57 56 58 58 58 59 59 58 57 57 57 58 58 57 56 56 56 55 54 53 53 53 52
47 46 46 46 46 46 46 45 45 44 43 42 41 41 41 41 42 42 43 43 43 43 43 43 43 44 44 45 45 45 46 47 49 52 54 57 58 59 61 62 61 58 58 60 60 60 60 60 60 59 58 59 60 60 59 59 59 58 58 57 56 56 55
50 50 49 49 49 48 48 48 47 47 46 45 45 44 43 43 43 44 44 45 45 45 45 45 45 45 46 46 47 47 47 47 49 51 53 55 56 58 59 63 66 63 59 60 62 62 62 63 62 62 61 60 60 61 62 62 62 61 61 60 60 60 59
51 51 51 51 51 51 51 50 50 49 49 48 48 47 47 46 45 45 46 47 47 47 47 47 48 48 48 48 49 49 49 49 50 51 53 54 55 56 58 60 65 67 64 61 62 64 64 65 64 65 65 64 63 62 62 62 62 62 62 61 62 62 63
53 52 52 53 53 52 52 52 52 51 51 50 50 50 50 49 49 48 48 48 49 49 50 50 50 50 51 51 51 51 51 51 52 52 52 54 55 56 57 58 62 66 67 65 63 64 66 67 66 66 67 68 68 67 66 64 63 61 60 61 61 61 62
54 54 54 54 54 53 53 53 53 53 53 53 52 52 52 52 52 51 51 50 51 52 52 52 52 52 53 53 53 53 53 53 54 54 54 54 55 56 57 58 59 62 65 66 65 65 66 68 69 68 68 68 69 71 71 71 69 66 64 63 63 62 62
56 56 55 55 54 54 54 54 54 54 55 55 55 55 55 54 54 54 54 54 53 54 54 55 55 55 55 55 55 55 56 55 55 56 56 56 56 57 58 58 59 61 62 64 64 65 66 67 69 70 70 69 69 71 73 74 75 73 71 69 69 67 66
60 59 59 58 57 56 55 55 55 56 56 56 57 57 57 57 57 57 57 57 57 56 57 57 57 58 58 58 58 58 57 58 58 57 58 58 58 58 59 59 60 61 62 63 63 64 65 66 68 69 71 71 70 71 72 74 76 77 77 76 76 75 74
63 62 62 62 62 60 59 58 58 58 58 58 58 59 59 59 60 60 60 60 59 60 60 60 60 60 60 60 60 60 60 59 59 59 59 60 60 60 60 61 61 62 63 63 64 64 64 65 66 67 69 71 71 71 71 72 73 75 78 79 80 80 80
64 64 64 64 65 64 64 63 62 61 61 61 61 61 61 61 62 63 63 62 62 62 63 63 64 64 63 63 63 63 62 62 61 61 61 61 62 62 62 62 63 63 64 64 65 66 66 66 66 67 68 69 70 71 72 72 72 72 73 76 78 80 81
62 63 64 65 67 67 67 66 66 65 64 65 64 64 63 64 64 64 65 65 65 65 66 67 67 67 67 67 67 66 65 65 64 64 64 64 64 64 64 65 65 66 66 66 67 67 68 68 68 68 68 69 69 70 72 73 73 73 73 73 75 76 77
60 60 62 64 66 67 67 67 67 67 67 67 67 67 67 67 66 66 66 67 67 68 69 70 70 70 70 70 70 69 69 68 68 68 67 67 67 67 67 67 67 68 68 69 69 69 70 70 70 70 70 70 70 70 71 72 73 74 74 74 75 75 76
59 59 60 61 63 65 65 65 66 67 69 69 69 70 70 69 69 69 69 69 70 71 72 72 73 73 73 73 73 73 73 73 73 72 71 71 70 70 69 69 69 69 70 71 72 72 72 73 73 73 73 72 72 72 72 73 73 74 75 75 76 76 77
60 60 60 61 62 63 64 63 64 65 67 69 70 71 71 71 72 72 72 72 73 74 74 74 75 76 77 77 77 77 77 77 76 76 75 75 74 74 73 73 72 72 72 73 73 73 74 75 75 75 76 75 75 75 74 75 75 75 76 76 77 78 78
62 62 62 62 62 63 63 63 62 63 64 65 67 68 69 71 72 73 73 74 76 77 77 77 79 80 80 80 80 80 80 80 79 79 79 78 78 78 77 77 76 76 76 76 76 75 75 76 76 77 77 78 78 77 77 77 78 78 78 78 79 79 79
65 65 64 64 64 64 64 63 63 62 62 63 64 65 67 69 71 71 72 74 77 79 79 81 82 83 83 82 81 81 82 82 82 82 82 82 81 81 81 81 81 81 81 80 79 79 79 78 78 78 79 79 79 79 80 80 80 80 80 80 81 81 81
68 67 67 66 66 66 65 65 65 64 63 64 64 64 66 68 69 70 72 74 76 77 78 81 83 84 85 84 84 84 83 84 84 84 84 84 84 84 85 84 84 85 85 84 83 83 82 82 81 81 81 81 81 81 81 82 82 82 83 83 83 83 84
71 70 70 69 69 68 68 67 67 67 66 66 65 65 66 67 68 70 71 73 74 75 77 79 81 83 85 86 87 87 86 86 86 85 86 86 87 87 88 88 88 88 88 87 87 87 86 86 85 85 84 84 84 84 84 84 84 84 85 85 85 85 86
72 72 72 72 71 71 70 70 70 69 69 68 67 67 67 67 68 69 70 71 73 74 75 77 78 80 82 84 87 88 88 88 88 88 88 88 88 89 89 90 90 90 90 90 90 90 90 89 89 88 88 88 87 87 87 87 87 87 87 87 86 87 88
73 73 73 73 73 73 73 72 72 72 71 70 70 69 69 69 69 70 71 71 72 72 73 75 76 77 79 81 84 86 87 88 89 90 91 91 91 91 91 92 92 92 92 93 93 93 92 92 91 91 91 91 91 91 90 90 90 90 90 90 90 89 90
74 74 74 74 74 74 74 74 74 74 73 73 72 71 71 71 71 71 72 72 72 72 72 73 74 76 78 80 82 83 84 86 88 89 90 91 92 93 94 94 94 94 93 94 94 94 94 94 94 94 94 94 94 94 94 94 94 94 94 94 93 93 93
76 76 75 75 75 75 75 75 75 75 75 74 74 73 73 72 73 73 74 73 73 72 72 72 73 75 77 79 81 83 84 86 87 89 89 90 90 92 93 94 95 95 95 95 96 96 96 96 95 95 95 96 96 96 96 97 97 98 98 97 96 96 97
77 77 77 76 76 76 76 76 76 76 75 75 75 75 74 74 74 75 75 74 73 73 73 73 74 75 77 79 81 83 85 87 89 90 91 91 92 92 92 93 93 94 94 95 96 97 97 97 97 97 96 96 97 97 98 99 100 100 99 99 99 99 99
78 77 78 77 77 77 77 77 77 76 76 76 75 75 75 75 75 75 75 74 74 73 73 74 75 76 77 79 81 83 85 87 89 90 91 92 93 93 94 94 93 93 93 93 94 95 96 97 98 98 99 99 99 99 99 100 100 100 99 99 100 100 101
78 78 78 78 78 77 77 77 77 77 77 76 76 76 76 76 76 76 75 74 74 74 74 74 75 77 78 80 81 83 84 85 87 88 90 91 92 93 94 95 95 95 94 93 92 93 93 95 96 97 98 99 100 101 102 102 102 101 101 101 101 101 101
78 78 78 78 78 78 78 78 78 78 78 78 77 77 77 77 76 76 75 75 75 74 74 75 76 77 78 79 80 82 83 84 84 85 86 88 90 92 93 94 95 96 96 95 93 92 91 91 92 94 95 96 98 99 101 102 102 102 103 103 104 104 104
76 76 76 76 77 77 78 78 78 78 78 78 78 78 78 77 77 76 76 76 75 75 75 76 77 78 78 78 79 81 82 82 82 83 84 85 87 89 91 92 93 94 95 95 95 93 92 91 90 90 90 92 93 95 97 98 99 99 100 101 103 104 105
73 73 73 73 74 75 76 76 76 77 77 78 78 79 78 78 78 77 76 76 75 75 76 77 78 78 78 78 79 79 80 80 80 81 81 82 84 86 88 89 90 91 92 92 93 93 92 91 90 88 88 88 88 88 89 90 91 92 93 95 96 97 99
70 70 70 70 71 72 73 73 73 73 74 75 76 77 77 78 77 76 76 76 76 76 77 77 78 79 78 78 78 78 78 78 77 77 78 78 80 82 83 84 85 87 88 89 89 89 89 89 88 87 86 85 84 83 82 81 82 83 84 85 87 88 90
67 67 67 67 68 69 69 69 69 69 70 71 72 73 74 74 74 74 75 75 76 76 77 77 78 78 78 78 78 77 76 74 74 73 73 74 75 76 78 79 80 81 82 83 84 84 84 84 84 83 82 81 80 78 76 75 75 75 76 77 79 81 83

ECMWFFLT1_250_spd_030.txt.gz
Wind_Speed
26 26 26 27 28 28 29 29 29 29 29 29 30 30 31 32 32 33 34 34 35 36 38 41 43 45 47 50 53 56 57 53 49 49 48 47 46 45 42 40 40 41 38 36 37 39 39 42 46 47 46 44 43 43 42 40 39 38 38 38 38 40 40
27 26 26 26 27 28 29 29 28 28 28 29 29 30 31 32 32 32 32 33 34 35 36 38 40 43 45 47 49 52 56 56 54 53 52 49 47 47 44 41 42 42 40 39 40 40 40 40 43 47 48 47 46 45 44 43 42 41 42 41 40 41 42
30 28 27 27 28 28 29 29 29 29 29 29 29 30 30 31 32 32 32 32 32 34 36 38 39 41 43 44 46 48 51 54 55 57 56 53 50 49 46 41 42 42 40 41 42 43 42 42 43 46 49 50 49 49 48 46 44 44 46 45 44 43 43
33 32 30 29 29 29 30 30 31 31 31 30 30 30 30 31 32 32 33 32 32 33 35 37 39 40 41 42 43 45 47 50 53 56 58 57 54 52 49 44 42 42 41 41 42 43 43 42 43 45 48 50 51 51 51 49 47 46 48 49 48 47 45
37 36 34 33 32 31 31 31 31 32 32 32 32 32 32 32 32 32 33 34 34 34 34 36 37 38 39 40 41 43 44 47 50 53 55 57 58 56 54 50 47 46 45 43 42 43 44 43 43 44 46 49 51 51 52 51 50 48 48 51 51 50 48
40 39 38 37 36 34 33 32 32 32 32 32 32 33 33 33 33 32 33 34 35 36 36 36 37 38 38 38 40 41 43 44 47 50 52 54 56 58 59 57 53 50 50 48 45 44 46 46 45 45 46 47 49 50 51 51 51 50 50 51 52 51 50
42 41 41 40 39 38 36 35 34 34 33 33 33 33 34 34 34 34 34 34 35 36 37 38 39 39 40 39 40 41 42 44 45 47 50 52 53 56 59 60 59 55 53 53 51 47 47 48 48 48 49 49 48 49 51 52 51 51 51 52 52 52 52
43 43 43 42 42 41 40 39 38 36 35 35 35 35 35 35 35 35 36 36 36 37 38 39 40 41 41 41 41 41 42 44 45 46 48 50 52 54 57 59 60 60 57 56 56 53 50 50 50 51 51 51 51 50 51 52 52 52 52 53 53 53 53
45 44 44 44 43 43 42 42 41 40 39 39 38 38 38 38 38 38 38 38 38 38 38 39 40 41 42 43 43 43 44 44 45 46 47 48 50 52 55 58 59 61 61 59 59 58 56 53 52 52 53 53 54 54 54 54 54 54 54 55 54 54 53
45 45 45 45 44 44 44 44 43 43 43 43 42 42 42 41 41 41 41 41 41 41 41 40 41 41 42 43 44 45 45 45 46 47 48 49 49 51 53 56 58 60 61 62 61 61 61 59 56 54 55 55 55 56 57 57 56 56 58 57 56 56 56
46 46 46 46 46 46 46 46 46 46 46 46 46 46 45 45 45 44 44 43 43 43 43 43 43 43 43 43 44 45 45 46 47 47 48 49 50 51 52 54 57 60 61 62 63 63 64 65 63 60 57 57 57 57 58 59 59 60 60 60 59 59 59
49 48 47 47 47 46 47 47 48 48 49 49 49 49 48 48 48 47 47 46 46 45 45 45 45 45 45 45 45 45 46 46 47 48 49 50 50 51 52 53 55 58 60 62 64 65 65 67 68 67 64 61 60 60 60 60 61 61 62 63 62 62 62
52 51 50 49 48 47 47 47 49 50 51 51 51 51 50 50 50 49 49 49 49 48 47 48 47 47 47 47 47 47 47 48 48 49 50 50 51 52 52 53 54 55 58 61 63 66 67 67 69 70 69 67 64 62 62 62 63 63 64 64 64 65 64
56 55 53 52 51 49 48 48 48 49 50 51 52 52 51 51 51 51 51 51 51 51 51 50 50 50 50 50 50 50 50 50 50 50 50 51 52 53 53 54 55 56 57 59 61 64 67 69 70 70 71 70 69 66 64 63 64 66 67 66 65 65 66
59 57 56 54 53 52 51 50 50 50 50 51 51 52 51 52 52 53 53 52 52 53 54 54 54 54 53 53 53 53 53 53 52 52 52 52 52 54 55 55 56 57 58 59 60 62 64 67 70 72 73 72 72 71 69 67 65 65 67 69 69 68 67
61 59 57 56 55 54 53 53 53 53 52 51 51 52 51 52 52 52 53 54 54 54 55 55 56 56 57 57 57 56 56 55 55 55 54 54 55 55 56 57 58 58 59 60 61 62 63 65 67 70 73 74 75 74 74 73 70 67 66 68 71 72 71
59 57 56 56 55 54 54 53 54 54 54 54 54 53 53 54 53 52 53 54 54 55 56 56 57 57 58 60 60 60 59 58 58 59 58 58 58 58 58 58 59 60 61 62 63 63 64 65 66 68 70 72 74 76 76 76 75 73 71 69 69 72 74
55 54 55 55 54 53 52 53 53 53 53 55 56 54 54 54 55 55 54 55 55 55 55 55 56 58 59 60 61 61 62 62 62 62 62 61 61 61 61 60 61 62 62 63 64 65 65 66 67 68 69 70 72 73 75 77 77 77 76 75 72 71 73
52 52 53 54 52 51 51 50 46 44 46 49 53 53 48 44 45 49 52 54 56 56 56 57 58 60 61 61 62 62 62 64 65 65 65 65 64 64 64 64 64 64 64 65 66 66 67 67 67 68 69 71 72 73 74 75 77 77 78 78 77 76 74
52 51 52 52 51 49 48 44 39 39 42 44 46 48 47 43 43 45 46 48 51 52 54 57 59 62 64 64 64 63 63 63 65 66 67 67 67 67 67 67 67 67 67 68 68 68 68 69 69 69 70 71 72 73 75 75 76 77 78 79 79 79 79
54 53 52 52 51 49 48 44 41 43 45 45 42 41 44 46 49 51 49 46 44 41 40 45 53 60 65 67 66 66 66 65 66 66 67 68 69 70 70 70 70 70 70 70 70 70 70 71 71 71 71 71 72 73 74 76 77 77 78 79 80 81 81
55 55 54 53 53 51 51 50 49 50 51 51 46 40 39 43 48 53 54 50 45 38 34 38 48 55 61 65 66 66 67 68 68 67 67 68 69 70 72 73 73 72 73 73 73 72 73 73 73 73 73 73 73 74 74 75 77 78 78 79 80 82 83
56 56 56 56 55 55 54 54 54 55 56 56 53 48 44 44 46 50 54 54 49 45 43 45 49 53 57 61 64 66 66 68 69 69 69 70 70 71 72 74 74 75 75 76 76 75 75 75 75 76 76 76 75 76 76 76 77 78 79 80 81 82 83
58 58 58 58 58 58 58 57 57 58 60 61 61 59 55 53 52 50 50 52 53 53 53 55 57 59 60 61 63 65 66 67 69 70 72 73 74 74 74 75 75 76 77 77 78 78 78 78 78 78 78 78 78 78 78 78 78 79 79 80 81 82 83
60 61 61 61 61 61 61 61 61 61 62 64 66 65 62 60 61 60 57 55 57 59 61 62 63 64 64 66 67 67 65 65 67 69 70 73 75 76 76 76 76 77 78 79 79 79 79 80 81 81 81 81 81 81 80 80 80 81 81 81 81 82 83
63 63 64 64 64 65 65 65 65 64 65 66 67 67 66 65 65 67 67 65 63 64 66 67 68 68 69 72 73 71 68 65 65 68 70 72 74 75 76 78 79 79 79 80 81 81 81 81 82 83 83 84 84 83 83 83 83 83 83 83 83 83 84
65 65 66 66 67 67 68 68 68 68 68 68 69 69 69 69 68 69 71 71 69 69 70 71 72 74 75 77 78 78 75 71 70 72 74 75 76 76 76 78 80 81 82 82 83 83 84 84 85 85 85 85 85 86 86 86 87 87 87 86 86 86 86
67 67 67 68 68 69 69 70 71 71 71 71 71 71 71 71 71 71 72 73 73 72 71 73 76 80 82 84 84 83 81 79 78 78 78 78 79 79 79 79 79 81 81 82 83 84 85 86 87 88 88 87 87 87 88 89 90 90 90 90 89 89 90
69 69 69 69 69 69 70 70 71 72 72 73 72 72 72 72 72 73 73 74 73 72 73 75 79 82 85 86 85 84 82 82 82 81 80 80 80 81 82 82 82 82 82 82 82 83 84 85 87 88 89 90 90 90 90 91 92 92 92 92 92 93 93
70 70 70 70 70 70 70 70 71 71 72 73 73 73 73 73 73 73 73 73 72 72 74 77 79 81 83 84 84 84 83 82 83 83 82 82 81 81 82 83 84 84 84 83 83 83 84 85 86 87 88 89 90 91 92 93 94 94 94 94 95 95 95
72 71 71 71 71 71 70 70 71 71 71 72 73 73 74 74 74 72 72 72 73 74 76 78 79 80 80 81 83 83 83 82 83 83 83 82 82 83 83 83 84 85 85 84 84 84 85 86 86 87 87 88 89 90 92 93 94 95 96 96 97 97 97
73 73 73 73 73 73 72 72 71 71 71 72 73 74 74 74 73 72 72 74 75 77 77 78 78 79 80 81 83 83 83 83 82 82 82 82 82 83 83 84 84 84 85 84 84 85 86 87 87 88 88 88 88 89 90 91 92 93 94 96 97 99 99
74 74 74 74 74 75 74 74 73 73 73 73 74 75 74 73 73 73 73 75 77 77 78 78 78 79 81 82 83 84 84 83 82 82 82 82 82 83 84 84 84 84 84 85 85 86 87 87 88 88 89 89 89 89 90 90 90 91 92 93 95 97 98
76 75 75 75 76 76 76 75 75 75 75 75 75 75 73 72 72 73 74 75 76 76 77 77 78 79 81 82 82 83 83 83 82 82 82 83 83 83 84 84 84 84 85 85 86 86 87 87 88 88 90 90 90 90 90 90 90 91 91 92 92 93 95
77 77 77 77 77 77 77 76 75 75 76 76 76 74 71 71 72 74 75 75 75 74 75 76 78 79 80 80 80 81 81 81 81 81 81 82 82 83 83 83 83 83 84 85 85 86 86 86 87 88 89 90 91 91 91 91 90 90 91 91 91 92 92
76 78 78 77 76 76 76 75 75 75 76 76 76 73 71 71 74 76 75 74 73 73 74 76 77 77 77 78 78 79 80 79 79 79 79 80 81 81 81 82 81 82 83 83 83 84 84 85 86 87 88 89 89 90 90 90 90 90 90 90 90 90 91
75 76 76 75 74 73 73 73 73 74 73 73 74 72 71 72 74 73 72 72 72 72 72 73 73 73 73 73 74 75 76 77 77 77 77 78 78 79 79 80 80 80 80 81 81 82 82 83 84 85 85 86 87 88 88 88 88 88 87 87 87 88 88

ECMWFFLT1_250_spd_033.txt.gz
Wind_Speed
38 37 36 35 33 32 32 31 30 30 30 30 31 31 31 32 32 33 33 33 34 36 37 39 40 41 42 43 44 46 48 51 53 52 51 51 50 48 46 44 44 44 45 44 42 41 40 40 40 41 42 43 44 43 42 41 41 42 41 42 45 46 45
41 39 38 37 36 34 33 32 31 31 31 31 31 30 30 31 31 31 32 32 33 33 35 36 38 38 39 40 41 43 44 47 51 54 54 53 51 49 47 46 46 46 46 45 43 43 43 42 42 42 41 42 44 45 44 42 41 42 42 43 45 46 46
43 42 40 39 38 37 35 34 33 32 31 31 31 31 31 31 31 31 31 32 32 32 33 34 35 36 37 38 39 40 41 44 47 50 54 55 54 52 49 48 48 47 46 45 42 40 41 43 43 43 43 42 44 45 45 44 42 42 43 44 45 47 47
44 43 42 41 40 39 38 36 34 33 33 32 32 32 32 32 32 32 32 32 32 33 33 33 34 34 35 36 37 38 39 40 43 46 50 54 56 55 53 51 50 49 48 47 45 41 39 41 43 44 44 44 44 46 45 43 43 43 44 45 46 47 47
44 43 42 42 41 41 40 39 37 35 34 34 33 32 32 32 33 33 33 33 34 34 34 35 34 34 34 35 36 38 38 39 40 43 46 51 54 56 56 54 53 52 50 50 50 46 41 40 43 44 45 45 44 46 46 44 44 45 45 45 46 48 47
43 42 42 43 42 42 41 41 40 39 37 35 34 34 34 34 34 34 35 35 35 35 36 36 36 36 35 35 35 37 39 39 40 41 42 46 50 53 55 55 55 56 54 52 52 52 47 42 42 44 45 47 46 46 47 45 45 46 47 47 47 48 49
43 42 42 42 42 42 42 42 42 42 41 39 37 37 36 36 36 36 36 36 36 36 36 37 37 38 37 37 36 37 38 39 40 40 41 42 45 48 51 52 54 57 58 56 55 55 52 47 45 45 44 45 47 47 47 47 46 47 47 48 48 49 50
45 44 44 44 43 43 43 43 43 43 43 43 41 40 39 39 39 38 38 38 37 37 37 37 38 38 39 39 39 39 38 39 40 40 40 40 42 44 46 48 50 53 56 58 58 57 56 52 49 48 47 45 46 47 48 48 48 48 47 48 50 51 51
46 46 46 46 46 46 45 44 44 44 44 44 44 43 43 42 41 40 40 39 39 39 38 38 38 39 39 40 41 41 41 40 41 41 41 41 41 42 43 45 46 48 51 55 57 58 60 58 54 52 52 50 47 47 49 49 48 48 48 49 50 52 52
46 47 48 49 49 49 48 46 45 45 45 45 45 45 45 44 44 43 42 42 41 41 41 40 41 40 40 40 41 42 43 43 43 43 43 43 42 42 43 43 44 45 47 49 53 55 58 60 59 57 56 56 53 50 50 51 52 50 48 49 51 52 53
45 46 47 49 50 50 50 49 47 46 45 45 45 46 46 46 46 45 45 44 44 43 43 42 43 43 42 42 42 42 43 44 44 45 45 45 45 44 44 45 45 46 46 47 49 51 54 58 60 60 60 60 59 56 53 52 54 54 52 52 53 53 54
46 44 44 47 49 50 51 51 50 48 47 46 46 46 46 46 47 47 46 46 46 46 46 45 45 45 45 45 45 44 44 44 45 45 46 46 47 47 47 47 47 47 48 48 49 50 51 54 57 60 62 63 63 62 59 55 54 55 55 56 56 56 56
50 46 44 44 46 47 48 49 50 50 49 49 48 47 47 47 47 47 47 47 47 47 48 48 48 48 48 47 47 47 47 47 47 46 46 47 47 48 49 49 50 50 50 50 50 51 51 52 54 57 60 63 65 65 64 61 58 56 55 56 58 59 59
56 53 50 48 46 47 47 46 48 50 50 50 51 51 50 50 49 48 48 47 48 49 49 49 50 50 50 50 50 50 50 50 50 49 49 49 49 49 50 50 51 51 51 51 52 52 52 53 54 55 58 60 63 65 66 66 64 61 59 57 57 59 61
58 57 56 54 52 51 48 46 46 47 48 49 52 54 54 53 52 51 50 50 50 51 51 51 51 51 51 51 51 52 52 52 52 52 52 52 52 52 52 52 52 52 53 53 53 53 54 54 54 55 57 59 61 64 66 67 67 67 65 62 60 59 60
58 55 54 54 56 55 51 48 47 48 50 53 55 57 57 56 55 54 53 53 53 53 53 53 53 53 52 53 53 53 53 54 55 55 55 54 54 54 54 54 54 54 54 54 54 54 55 55 56 56 57 58 60 61 64 67 69 70 69 68 66 64 63
60 58 58 59 62 63 60 58 58 59 61 62 61 60 60 58 56 56 56 57 58 57 56 55 54 55 55 54 54 55 55 55 56 57 57 56 56 56 56 56 57 56 56 56 56 56 56 57 57 58 58 59 60 61 62 64 67 70 72 72 71 69 68
62 65 68 69 69 69 67 66 67 68 69 68 64 62 61 59 57 57 58 59 61 62 60 58 57 58 58 57 56 57 57 57 57 57 57 57 58 59 59 58 59 59 58 58 58 57 58 58 58 59 60 60 61 62 63 63 65 67 70 73 74 74 72
65 67 69 70 70 69 69 68 67 68 68 66 62 60 60 59 58 57 59 60 61 62 62 62 62 63 63 61 60 59 59 58 57 58 59 59 59 60 61 61 61 61 61 60 60 60 60 60 60 60 61 62 62 63 63 64 65 66 67 70 73 75 76
61 63 64 64 64 65 64 63 63 63 62 61 59 56 56 57 56 55 57 59 60 61 61 61 63 65 66 66 64 63 61 60 60 60 60 60 61 61 62 63 63 63 63 63 62 62 63 63 63 63 63 63 64 65 65 65 66 67 68 69 70 72 74
57 59 58 57 58 60 59 58 58 58 57 57 56 54 53 53 53 53 53 54 56 57 58 59 60 61 63 66 67 66 64 64 63 63 63 62 62 63 63 64 64 64 65 65 65 65 65 65 66 66 66 66 66 66 67 67 68 68 69 70 71 71 72
57 57 57 57 57 58 59 58 57 56 56 55 55 54 52 52 52 52 51 51 53 54 53 54 56 57 58 61 64 65 65 65 65 65 65 65 65 66 66 65 65 65 65 65 66 66 67 68 68 68 68 68 69 69 69 69 69 70 70 71 72 72 73
56 56 57 57 57 57 58 57 57 57 56 56 55 55 53 52 52 53 52 51 53 53 50 48 50 52 54 57 59 62 63 64 65 65 65 65 66 68 69 68 67 66 66 67 67 67 68 69 70 71 71 71 71 72 72 72 72 72 72 73 74 74 75
56 56 56 56 57 57 57 57 57 57 57 57 57 56 56 55 54 54 54 53 54 54 51 49 50 51 53 55 58 61 62 62 63 65 66 66 65 66 68 69 69 69 69 69 69 69 69 70 71 71 72 73 73 74 74 74 75 75 74 75 76 77 77
56 56 56 56 56 57 57 57 57 58 58 58 58 58 58 58 57 56 56 56 57 57 56 56 55 55 56 57 58 61 64 64 63 65 68 68 67 65 64 64 66 67 69 71 71 71 72 73 73 72 72 73 74 75 76 77 77 77 78 78 78 79 79
56 57 57 58 58 58 59 59 59 59 59 59 59 60 60 60 60 59 59 59 60 61 61 62 63 62 63 63 61 61 64 66 66 67 68 69 70 69 66 63 63 64 66 69 70 71 72 74 74 74 73 74 74 75 76 77 78 79 80 81 81 82 82
58 58 59 59 60 60 60 61 61 61 62 62 61 62 62 62 62 62 62 62 63 64 64 66 68 70 70 70 68 66 66 68 69 69 70 70 71 73 72 69 67 66 66 67 68 69 70 71 73 74 74 75 75 76 77 77 79 80 81 82 83 84 85
60 60 61 61 61 62 62 63 63 63 64 64 64 64 64 64 64 64 64 65 65 66 67 69 72 74 75 75 74 73 72 72 72 72 73 72 73 75 77 76 75 73 72 71 70 70 70 70 71 72 74 74 75 76 77 79 80 81 82 83 83 84 86
63 63 63 63 63 64 64 64 65 65 65 66 66 66 66 66 66 65 66 67 68 69 70 71 73 75 76 77 77 77 76 76 76 77 77 78 78 79 80 81 81 80 79 78 77 76 76 76 75 75 76 76 77 77 78 79 80 81 82 84 84 85 86
66 66 65 65 65 66 66 66 66 66 66 67 67 67 67 67 67 67 68 70 70 71 72 73 74 75 77 78 79 80 79 79 80 81 82 82 83 83 83 84 84 85 85 84 84 84 83 83 83 83 83 83 83 83 82 82 81 81 82 83 85 86 88
69 68 68 68 68 68 68 68 68 68 68 68 68 68 68 68 68 69 70 71 72 73 74 75 75 76 77 78 80 81 81 81 82 83 84 85 86 86 86 87 88 89 89 89 90 90 90 90 90 90 89 88 88 88 87 86 85 84 84 85 85 87 88
71 70 70 70 70 71 71 71 71 71 70 70 69 68 68 68 69 70 71 72 73 74 75 76 77 77 77 78 79 80 81 82 83 83 84 86 87 88 88 89 89 90 91 92 93 94 94 95 95 94 92 91 91 91 90 89 89 88 88 88 89 89 89
73 72 73 73 73 73 73 74 74 73 72 71 70 69 68 68 69 70 71 72 73 74 75 76 77 78 78 78 79 80 80 81 82 83 84 85 87 87 88 89 90 90 91 92 93 94 95 95 95 94 94 93 93 93 93 92 92 92 91 91 91 91 90
75 74 74 74 74 75 75 75 76 75 74 73 71 70 68 68 68 69 70 71 72 73 74 75 76 77 78 78 78 79 80 80 82 83 84 85 86 86 87 87 88 89 90 91 92 92 93 93 93 93 93 93 93 93 93 94 94 94 93 93 93 92 92
76 75 76 76 76 76 76 76 76 75 75 74 72 70 69 69 70 70 70 71 71 72 72 73 73 74 75 76 77 78 79 80 81 83 84 84 85 86 86 86 87 87 88 89 89 89 89 90 90 91 91 91 91 92 92 92 93 93 93 93 93 93 93
76 76 77 77 77 77 77 76 75 74 74 73 71 70 70 70 70 70 71 71 71 70 70 70 70 71 72 73 75 76 78 79 80 82 83 83 84 85 85 85 85 85 86 86 86 87 87 87 87 88 88 89 89 89 89 89 90 90 90 91 91 91 92
77 77 77 76 76 76 75 73 72 72 71 70 69 69 69 69 69 69 70 70 69 68 68 68 68 68 69 70 72 74 75 76 78 79 80 81 82 82 82 82 83 83 84 84 84 84 84 84 85 85 86 86 86 87 87 87 87 87 87 87 88 88 88